www.pogodaiklimat.ru

Погода и климат >> Архив погоды >> Китай >> Хэйлунцзян >> Цицикар


ПОГОДА в Цицикаре

  • Прогноз погоды в Цицикаре
  • Монитор погоды в Цицикаре

АРХИВ ПОГОДЫ в Цицикаре

Время (UTC), дата Ветер
(напр.,м/с)
 
Видим.   Явления Облачность Т
(С)
Тd
(С)
f
(%)
Тe
(С)
Тes
(С)
Комфортность P
(гПа)
Po
(гПа)
Тmin
(С)
Tmax
(С)
R
(мм)
R24
(мм)
S
(см)
21 16.07 З 1 15 км н/о +19.4 +18.9 97 +23 +23 комфорт 1005.9 988.7
00 17.07 В 1 30 км 3/3 1000 м
[]
+24.2 +19.3 74 +29 +36 душно 1006.4 989.4 0.0
03 17.07 З 3 30 км 8/8 1000 м
[]
+26.0 +19.4 67 +31 +34 очень
душно
1005.7 988.8
06 17.07 З 1 30 км {дождь} 8/8 1000 м
[]
+28.2 +20.2 62 +35 +38 очень
душно
1004.5 987.6 +18.9
09 17.07 ЮЗ 1 30 км 4/4 1000 м
[]
+27.6 +19.7 62 +33 +36 очень
душно
1003.7 987.0
12 17.07 Ю 2 30 км 3/3
[]
+26.1 +20.9 73 +33 +33 очень
душно
1004.3 987.5
15 17.07 ЮЗ 3 30 км ?/? +24.2 +21.1 83 +31 +31 очень
душно
1004.5 987.6
18 17.07 Ю 3 30 км н/о +23.2 +20.5 85 +31 +31 очень
душно
1003.9 987.1 +28.8
21 17.07 З 2 14 км н/о +21.5 +20.7 95 +27 +27 душно 1003.9 986.8
00 18.07 З 1 19 км 8/8 1500 м
[]
+24.1 +20.8 82 +30 +32 очень
душно
1003.7 986.9 0.0
03 18.07 С 1 30 км 3/3 1000 м
[]
+26.9 +22.1 75 +35 +49 очень
душно
1004.1 987.3
06 18.07 С 2 30 км 3/3 1000 м
[]
+29.9 +20.7 58 +37 +47 очень
душно
1003.2 986.5 +21.1
09 18.07 В 1 30 км 5/5 1000 м
[]
+29.7 +21.1 60 +37 +39 очень
душно
1002.8 986.2
12 18.07 В 2 30 км 3/3 1500 м
[]
+26.9 +21.2 71 +34 +34 очень
душно
1003.6 986.8
15 18.07 штиль 0 30 км н/о +24.8 +21.5 82 +32 +32 очень
душно
1004.3 987.4
18 18.07 Ю 1 24 км н/о +23.6 +20.5 83 +29 +29 душно 1003.7 987.0 +30.9
21 18.07 Ю 2 29 км н/о +23.5 +20.6 84 +29 +29 душно 1003.4 986.4
00 19.07 ЮВ 3 27 км 9/9 1500 м
[]
+26.6 +21.4 73 +34 +35 очень
душно
1003.5 986.8 0.0
03 19.07 Ю 4 22 км 9/9 1500 м
[]
+29.5 +22.2 65 +38 +40 очень
душно
1002.9 986.3
06 19.07 ЮЗ 3 20 км 9/9 1000 м
[]
+30.3 +22.7 64 +40 +41 очень
душно
1002.0 985.3 +22.1
09 19.07 Ю 4 17 км 9/9 1000 м
[]
+31.3 +23.1 62 +42 +42 опасность
перегрева
1001.7 985.2
12 19.07 Ю 4 13 км 9/9
[]
+28.8 +22.8 70 +38 +38 очень
душно
1002.0 985.4
15 19.07 Ю 3 8000 м н/о +27.1 +22.5 76 +36 +36 очень
душно
1002.2 985.5
18 19.07 Ю 3 н/о дымка ?/? +25.7 +22.4 82 +34 +34 очень
душно
1001.3 984.7 +32.0
21 19.07 Ю 4 4700 м дымка н/о +25.4 +21.7 80 +33 +33 очень
душно
1001.4 984.6
00 20.07 Ю 3 н/о мгла 9/9 1500 м
[]
+26.4 +21.4 74 +34 +34 очень
душно
1001.5 984.9
03 20.07 Ю 5 13 км 10/10 1500 м
[]
+27.0 +18.8 61 +32 +32 очень
душно
1000.9 984.2
06 20.07 Ю 5 15 км 9/9 1500 м
[]
+28.6 +20.1 60 +35 +36 очень
душно
1000.1 983.5 +25.1
09 20.07 Ю 5 12 км 9/9 1500 м
[]
+28.4 +21.2 65 +36 +36 очень
душно
999.1 982.5
12 20.07 Ю 4 13 км 9/9 1500 м
[]
+27.7 +21.0 67 +35 +35 очень
душно
999.8 983.2
15 20.07 Ю 2 12 км н/о +26.5 +22.1 77 +34 +34 очень
душно
998.9 982.2
18 20.07 ЮВ 2 14 км слаб. дождь ?/? +22.9 +20.6 87 +30 +30 очень
душно
999.2 982.5 +29.9 17
21 20.07 В 3 7000 м н/о +22.9 +22.2 96 +31 +31 очень
душно
998.6 981.7
00 21.07 Ю 2 13 км 9/9 1000 м
[]
+24.0 +21.3 85 +30 +31 очень
душно
999.1 982.4 17
03 21.07 Ю 3 11 км 9/9 1500 м
[]
+26.5 +22.6 79 +35 +36 очень
душно
999.3 982.6
06 21.07 З 2 12 км 9/9 1000 м
[]
+28.0 +22.9 74 +37 +39 очень
душно
999.2 982.5 +21.9
09 21.07 ЮВ 2 12 км {дождь} 9/9 1000 м
[]
+28.2 +23.6 76 +38 +39 очень
душно
998.5 981.9
12 21.07 ЮВ 2 8000 м {дождь} 9/9
[]
+26.4 +24.1 87 +37 +37 очень
душно
999.4 982.7 0.0
15 21.07 С 2 3500 м дымка н/о +23.7 +23.2 97 +32 +32 очень
душно
1000.0 983.1
18 21.07 С 2 4400 м дымка ?/? +22.0 +21.3 96 +29 +29 очень
душно
1000.6 983.8 +28.2
21 21.07 С 1 30 км н/о +20.0 +18.1 89 +24 +24 комфорт 1000.4 983.3
00 22.07 С 3 30 км ясно +23.5 +16.3 64 +27 +34 душно 1000.9 984.1
03 22.07 З 3 30 км 3/3 1000 м
[]
+26.0 +16.8 57 +30 +40 душно 999.3 982.5
06 22.07 З 2 30 км 3/3 1000 м
[]
+27.8 +17.9 55 +32 +42 душно 998.3 981.6 +20.0
09 22.07 З 1 30 км 3/3 1000 м
[]
+29.3 +18.1 51 +34 +36 очень
душно
997.4 980.9
12 22.07 В 1 30 км 3/3
[]
+24.8 +20.5 77 +31 +31 очень
душно
998.4 981.6
15 22.07 СЗ 1 30 км н/о +23.2 +18.7 76 +29 +29 душно 999.0 982.1
18 22.07 В 1 30 км н/о +21.5 +16.9 75 +25 +25 комфорт 998.5 981.7 +29.8
21 22.07 СВ 1 30 км в посл. час дождь н/о +20.9 +17.7 82 +26 +26 душно 998.1 981.1
00 23.07 З 2 30 км 9/9 1500 м
[]
+23.1 +17.1 69 +28 +29 душно 999.3 982.5
03 23.07 ЮЗ 3 20 км слаб. дождь 10/10 1500 м
[]
+22.1 +19.6 86 +28 +28 душно 999.8 982.8
06 23.07 Ю 2 15 км слаб. дождь 10/10 1500 м
[]
+22.1 +19.5 85 +28 +28 душно 999.9 983.0 +19.3 0.6
09 23.07 Ю 4 30 км {дождь} 10/10 1500 м
[]
+22.3 +19.1 82 +28 +28 душно 998.9 981.9
12 23.07 ЮЗ 5 9000 м слаб. дождь 10/10 600 м
[]
+20.4 +19.2 93 +24 +24 комфорт 999.2 982.3 0.8
15 23.07 В 2 6000 м дождь н/о +20.6 +20.1 97 +26 +26 душно 997.8 980.8
18 23.07 ЮЗ 2 18 км в посл. час дождь ?/? +21.0 +20.5 97 +27 +27 душно 996.7 979.8 +24.3 5

 

Местоположение метеостанции Цицикар (Хэйлунцзян, Китай): широта 47.38 долгота 123.91 высота над уровнем моря 148 м.

В архиве по умолчанию представлена погода в Цицикаре за последнюю неделю. Архивные данные за месяц целиком и за предыдущие месяцы, начиная с января 2011 года, Вы можете получить, выбрав интересующий диапазон дат из раскрывающегося списка и нажав кнопку "Ввод!".


*Определитесь, кто Вы:
робот инопланетянин человек

Внимание! Время в таблицах - всемирное. Для получения местного времени необходимо прибавить поправку, которая равна 8 ч.

Смотрите также архив погоды в соседних городах и на ближайших метеорологических станциях:

Погода в Тайлае (Хэйлунцзян, Китай) (115 км)
Погода в Аньда (Хэйлунцзян, Китай) (154 км)
Погода в Кэшане (Хэйлунцзян, Китай) (165 км)
Погода в Сяо Эргу (Внутренняя Монголия, Китай) (203 км)
Погода в Ксиджоу (Внутренняя Монголия, Китай) (214 км)
Погода в Нацзине (Хэйлунцзян, Китай) (222 км)
Погода в Хайлуне (Хэйлунцзян, Китай) (230 км)
Погода в Цянь Горлос (Гирин, Китай) (266 км)
Погода в Харбине (Хэйлунцзян, Китай) (283 км)
Погода в Аршане (Внутренняя Монголия, Китай) (301 км)

Пояснения к столбцам:

Ветер - указаны скорость ветра в м/с - средняя за 10 мин, порывы в срок и между сроками (в фигурных скобках) и направление, откуда дует ветер: С - северный, СВ - северо-восточный, В - восточный, ЮВ - юго-восточный, Ю - южный, ЮЗ - юго-западный, З - западный, СЗ - северо-западный.
Видимость - горизонтальная дальность видимости в метрах или километрах. При видимости от 1 до 10 км при отсутствии осадков обычно наблюдается дымка, при ухудшении видимости до 1 км и менее - туман. В сухую погоду видимость может ухудшаться дымом, пылью или мглою.
Явления - указаны атмосферные явления, наблюдавшиеся в срок или в последний час перед сроком; фигурными скобками обозначены явления, наблюдавшиеся между сроками (за 1-3 часа до срока); квадратными скобками обозначены град или гололедные отложения с указанием их диаметра в мм.
Облачность - указаны через наклонную черту общая и нижняя облачность в баллах и высота нижней границы облаков в метрах; квадратными скобками обозначены формы облаков: Ci - перистые, Cs - перисто-слоистые, Cc - перисто-кучевые, Ac - высококучевые, As - высокослоистые, Sc - слоисто-кучевые, Ns - слоисто-дождевые, Cu - кучевые, Cb - кучево-дождевые. Подробнее классификацию облаков см. в Атласе облаков (PDF).
T - Температура воздуха - температура, измеренная на высоте 2 м над землей.
Td - Температура точки росы - температура, при понижении до которой содержащийся в воздухе водяной пар достигнет насыщения.
f - Относительная влажность воздуха - влажноcть воздуха, измеренная на высоте 2 м над землей.
Te - Эффективная температура - температура, которую ощущает одетый по сезону человек в тени. Характеристика душности погоды. При расчете учитывается влияние влажности воздуха и скорости ветра на теплоощущения человека.
Tes - Эффективная температура на солнце - температура, которую ощущает человек, с поправкой на солнечный нагрев. Характеристика знойности погоды. Зависит от высоты солнца над горизонтом, облачности и скорости ветра. Ночью, в пасмурную погоду, а также при ветре 12 м/с и более поправка равна нулю.
P - Атмосферное давление - приведенное к уровню моря атмосферное давление.
Po - Атмосферное давление - измеренное на уровне метеостанции атмосферное давление.
Tmin - Минимальная температура - минимум температуры воздуха на высоте 2 м над землей.
Tmax - Максимальная температура - максимум температуры воздуха на высоте 2 м над землей.
R - Количество осадков - Количество выпавших осадков за период времени, мм. При наведении курсора мыши на число - период времени, за который выпало указанное количество осадков.
R24 - Количество осадков - Количество выпавших осадков за 24 часа, мм.
S - Снежный покров - Высота снежного покрова, см. При наведении курсора мыши на число - состояние снежного покрова и степень покрытия местности в баллах.